Location: Newark
(47.5833°N, 8.1500°E)
Time: 07:53:16
(UTC+00:00)

Vanguard 1 - Pass Details

Date: 01 November 2020
Orbit: 650 x 3833 km, 34.2° (Epoch: 29 November)

Event Time Altitude Azimuth Distance (km) Brightness Sun altitude
Rises 10:38:20 0° 223° (SW) 6,815 14.9 27.3°
Reaches altitude 10° 10:42:44 10° 217° (SW) 6,134 14.9 27.4°
Maximum altitude 11:01:55 45° 154° (SSE) 4,648 14.9 27.7°
Drops below altitude 10° 11:22:09 10° 91° (E) 6,474 14.3 27.7°
Sets 11:26:54 0° 86° (E) 7,208 14.4 27.7°
